sat.trackr.live / text

‹ back to catalog

STARLINK-37024

NORAD 68106 · 2026-044F

PAYLOAD ACTIVE UNKNOWN

§ Identity

Operator
Country
US
Launch date
2026-03-08
Launch site
AFWTR
Launch vehicle
Mass (kg)
RCS (m²)

Purposes: comms

External: N2YO · Heavens-Above · Gunter

§ Orbital elements

Epoch: 2026-09-19T07:35:30.168096Z

Period
93.91 min
Inclination
97.2846°
Eccentricity
0.0001800
Mean motion
15.33444590 rev/d
Perigee alt
464.3 km
Apogee alt
466.8 km
Semi-major
6,843.7 km
B*
4.4546e-4
RAAN
221.2429°
Arg perigee
86.5448°
Mean anomaly
273.6000°
Rev number
3,125

§ Raw data

STARLINK-370241 68106U 26044F   26262.31632139  .00014334  00000+0  44546-3 0  99932 68106  97.2846 221.2429 0001800  86.5448 273.6000 15.33444590 31252

JSON: /api/v1/satellites/68106 · /tle

For live sub-satellite position, see the globe view (requires WebGL).

§ Visibility from observer

Set your observer location to see the next 7 days of passes ≥ 10°. The values pass through the URL so the page stays shareable.

No JS? Fill the form by hand. The geolocation button needs JavaScript.